Satellite: SRMSAT Catalog number: 37841 Epoch time: 12102.92118976 Element set: 0128 Inclination: 019.9726 deg RA of node: 043.2536 deg Eccentricity: 0.0012544 Arg of perigee: 184.6347 deg Mean anomaly: 175.3972 deg Mean motion: 14.10128488 rev/day Decay rate: 2.64e-06 rev/day^2 Epoch rev: 02583 Checksum: 299
Satellite: RAX-2 Catalog number: 37853 Epoch time: 12102.98905141 Element set: 0161 Inclination: 101.7192 deg RA of node: 113.0639 deg Eccentricity: 0.0249456 Arg of perigee: 179.5200 deg Mean anomaly: 180.6290 deg Mean motion: 14.79337826 rev/day Decay rate: 2.000e-05 rev/day^2 Epoch rev: 02461 Checksum: 277
Satellite: AUBIESAT Catalog number: 37854 Epoch time: 12102.95988829 Element set: 0160 Inclination: 101.7193 deg RA of node: 113.1866 deg Eccentricity: 0.0251390 Arg of perigee: 178.9676 deg Mean anomaly: 181.2093 deg Mean motion: 14.79676315 rev/day Decay rate: 2.574e-05 rev/day^2 Epoch rev: 02459 Checksum: 329
Satellite: HRBE Catalog number: 37855 Epoch time: 12102.96770779 Element set: 0161 Inclination: 101.7200 deg RA of node: 113.1699 deg Eccentricity: 0.0251757 Arg of perigee: 179.0082 deg Mean anomaly: 181.1675 deg Mean motion: 14.79558043 rev/day Decay rate: 2.161e-05 rev/day^2 Epoch rev: 02459 Checksum: 302
Satellite: RS-39 Catalog number: 38051 Epoch time: 12103.54867499 Element set: 239 Inclination: 051.6344 deg RA of node: 112.3794 deg Eccentricity: 0.0010599 Arg of perigee: 157.9305 deg Mean anomaly: 346.1198 deg Mean motion: 15.23146128 rev/day Decay rate: 5.053e-05 rev/day^2 Epoch rev: 1196 Checksum: 310
Satellite: E-STAR Catalog number: 38079 Epoch time: 12103.39895173 Element set: 143 Inclination: 069.4932 deg RA of node: 105.5892 deg Eccentricity: 0.0765869 Arg of perigee: 330.6148 deg Mean anomaly: 025.3929 deg Mean motion: 14.10092465 rev/day Decay rate: 4.7610e-04 rev/day^2 Epoch rev: 829 Checksum: 323
Satellite: GOLIAT Catalog number: 38085 Epoch time: 12103.41967040 Element set: 139 Inclination: 069.4891 deg RA of node: 105.6217 deg Eccentricity: 0.0765063 Arg of perigee: 330.6244 deg Mean anomaly: 025.3881 deg Mean motion: 14.09414623 rev/day Decay rate: 4.3814e-04 rev/day^2 Epoch rev: 829 Checksum: 290
/EX